This demonstration page uses our WeatherBlox Daily Observations layout. Learn more.

Left ArrowRight Arrow

Hourly Observations for March 5, 2020

Temp ( °F °C ) Dew Point ( °F °C ) Humidity (%) Winds ( mph kmh ) Pressure ( in mb ) Visibility ( mi km ) Precip ( " mm )
12:53 am 00:53 Clear 48 8.9 38 3.3 68 68 NW 3 6 30.07 1018 10 16 0.00 0.00
1:53 am 01:53 Clear 48 8.9 38 3.3 68 68 Calm 30.08 1019 10 16 0.00 0.00
2:53 am 02:53 Clear 47 8.3 38 3.3 71 71 Calm 30.07 1018 10 16 0.00 0.00
3:53 am 03:53 Clear 45 7.2 37 2.8 74 74 Calm 30.07 1018 10 16 0.00 0.00
4:53 am 04:53 Clear 43 6.1 37 2.8 80 80 Calm 30.07 1018 10 16 0.00 0.00
6:53 am 06:53 Sunny 41 5 36 2.2 82 82 Calm 30.10 1019 10 16 0.00 0.00
7:53 am 07:53 Sunny 46 7.8 39 3.9 77 77 Calm 30.12 1020 10 16 0.00 0.00
8:53 am 08:53 Sunny 56 13.3 41 5 57 57 Calm 30.13 1020 10 16 0.00 0.00
9:53 am 09:53 Sunny 61 16.1 41 5 48 48 Calm 30.13 1020 10 16 0.00 0.00
10:53 am 10:53 Sunny 65 18.3 42 5.6 43 43 SSE 7 11 30.12 1020 10 16 0.00 0.00
11:53 am 11:53 Sunny 69 20.6 43 6.1 39 39 VRB 5 7 30.10 1019 10 16 0.00 0.00
12:53 pm 12:53 Sunny 71 21.7 43 6.1 36 36 VRB 6 9 30.06 1018 10 16 0.00 0.00
1:53 pm 13:53 Sunny 74 23.3 43 6.1 33 33 SSW 9 15 30.02 1017 10 16 0.00 0.00
2:53 pm 14:53 Sunny 74 23.3 42 5.6 32 32 S 15 24 30.00 1016 10 16 0.00 0.00
3:53 pm 15:53 Sunny 74 23.3 44 6.7 34 34 SSW 8 13 29.99 1016 10 16 0.00 0.00
4:53 pm 16:53 Sunny 73 22.8 43 6.1 34 34 SSW 8 13 29.97 1015 10 16 0.00 0.00
5:53 pm 17:53 Sunny 71 21.7 43 6.1 36 36 SSW 5 7 29.96 1014 10 16 0.00 0.00
6:53 pm 18:53 Clear 64 17.8 44 6.7 48 48 Calm 29.97 1015 10 16 0.00 0.00
7:53 pm 19:53 Clear 62 16.7 44 6.7 52 52 undefined N/A 29.97 1015 10 16 0.00 0.00
8:53 pm 20:53 Clear 59 15 44 6.7 58 58 VRB 3 6 29.97 1015 10 16 0.00 0.00
9:53 pm 21:53 Clear 55 12.8 44 6.7 67 67 Calm 29.98 1015 10 16 0.00 0.00
10:53 pm 22:53 Clear 53 11.7 44 6.7 72 72 Calm 29.98 1015 10 16 0.00 0.00
11:53 pm 23:53 Clear 51 10.6 43 6.1 74 74 Calm 29.98 1015 10 16 0.00 0.00

Powered by AerisWeather